Time,TemperatureF,DewpointF,PressureIn,WindDirection,WindDirectionDegrees,WindSpeedMPH,WindSpeedGustMPH,Humidity,HourlyPrecipIn,Conditions,Clouds,dailyrainin,SoftwareType,DateUTC
2013-10-07 00:01:00,53.2,52.0,29.67,WSW,241,2.0,3.0,97,0.00,,,0.00,weatherlink.com 1.10,2013-10-07 04:01:00,
2013-10-07 00:16:00,53.0,52.0,29.66,SSW,207,0.0,2.0,97,0.00,,,0.00,weatherlink.com 1.10,2013-10-07 04:16:00,
2013-10-07 00:32:00,52.6,52.0,29.66,SSE,166,0.0,1.0,97,0.00,,,0.00,weatherlink.com 1.10,2013-10-07 04:32:00,
2013-10-07 00:47:00,52.2,51.0,29.66,SW,231,0.0,3.0,97,0.00,,,0.00,weatherlink.com 1.10,2013-10-07 04:47:00,
2013-10-07 01:02:00,51.8,51.0,29.64,SSW,201,1.0,2.0,97,0.00,,,0.00,weatherlink.com 1.10,2013-10-07 05:02:00,
2013-10-07 01:17:00,51.7,51.0,29.64,SW,235,0.0,2.0,97,0.00,,,0.00,weatherlink.com 1.10,2013-10-07 05:17:00,
2013-10-07 01:32:00,51.5,51.0,29.64,WSW,256,1.0,3.0,98,0.00,,,0.00,weatherlink.com 1.10,2013-10-07 05:32:00,
2013-10-07 01:47:00,51.6,51.0,29.64,SSW,211,2.0,3.0,98,0.00,,,0.00,weatherlink.com 1.10,2013-10-07 05:47:00,
2013-10-07 02:02:00,51.8,51.0,29.64,WSW,241,3.0,7.0,98,0.00,,,0.00,weatherlink.com 1.10,2013-10-07 06:02:00,
2013-10-07 02:17:00,52.0,51.0,29.64,SW,226,1.0,7.0,97,0.00,,,0.00,weatherlink.com 1.10,2013-10-07 06:17:00,
2013-10-07 02:32:00,52.1,51.0,29.64,West,274,2.0,9.0,97,0.00,,,0.00,weatherlink.com 1.10,2013-10-07 06:32:00,
2013-10-07 02:47:00,52.2,51.0,29.64,WNW,284,2.0,8.0,96,0.00,,,0.00,weatherlink.com 1.10,2013-10-07 06:47:00,
2013-10-07 03:02:00,52.2,51.0,29.64,West,278,1.0,10.0,95,0.00,,,0.00,weatherlink.com 1.10,2013-10-07 07:02:00,
2013-10-07 03:17:00,52.1,51.0,29.64,West,276,4.0,9.0,94,0.00,,,0.00,weatherlink.com 1.10,2013-10-07 07:17:00,
2013-10-07 03:32:00,52.1,50.0,29.64,SSE,167,2.0,11.0,93,0.00,,,0.00,weatherlink.com 1.10,2013-10-07 07:32:00,
2013-10-07 03:47:00,52.0,50.0,29.64,SW,229,2.0,9.0,92,0.00,,,0.00,weatherlink.com 1.10,2013-10-07 07:47:00,
2013-10-07 04:02:00,51.6,49.0,29.64,WSW,250,3.0,9.0,91,0.00,,,0.00,weatherlink.com 1.10,2013-10-07 08:02:00,
2013-10-07 04:17:00,51.6,49.0,29.65,SW,236,4.0,10.0,91,0.00,,,0.00,weatherlink.com 1.10,2013-10-07 08:17:00,
2013-10-07 04:32:00,51.5,49.0,29.64,WSW,249,6.0,9.0,91,0.00,,,0.00,weatherlink.com 1.10,2013-10-07 08:32:00,
2013-10-07 04:47:00,51.4,49.0,29.65,West,259,3.0,10.0,91,0.00,,,0.00,weatherlink.com 1.10,2013-10-07 08:47:00,
2013-10-07 05:02:00,51.1,48.0,29.65,SW,231,1.0,10.0,89,0.00,,,0.00,weatherlink.com 1.10,2013-10-07 09:02:00,
2013-10-07 05:17:00,50.8,48.0,29.66,South,179,3.0,11.0,89,0.00,,,0.00,weatherlink.com 1.10,2013-10-07 09:17:00,
2013-10-07 05:32:00,50.7,48.0,29.66,WSW,257,4.0,13.0,89,0.00,,,0.00,weatherlink.com 1.10,2013-10-07 09:32:00,
2013-10-07 05:47:00,50.0,47.0,29.66,SSW,203,0.0,10.0,88,0.00,,,0.00,weatherlink.com 1.10,2013-10-07 09:47:00,
2013-10-07 06:02:00,49.1,46.0,29.66,West,270,4.0,9.0,89,0.00,,,0.00,weatherlink.com 1.10,2013-10-07 10:02:00,
2013-10-07 06:17:00,48.3,46.0,29.66,WSW,248,1.0,8.0,90,0.00,,,0.00,weatherlink.com 1.10,2013-10-07 10:17:00,
2013-10-07 06:32:00,47.6,45.0,29.66,WSW,248,3.0,8.0,91,0.00,,,0.00,weatherlink.com 1.10,2013-10-07 10:32:00,
2013-10-07 06:47:00,47.2,45.0,29.67,WSW,243,3.0,11.0,91,0.00,,,0.00,weatherlink.com 1.10,2013-10-07 10:47:00,
2013-10-07 07:02:00,46.6,44.0,29.68,SSW,206,5.0,9.0,91,0.00,,,0.00,weatherlink.com 1.10,2013-10-07 11:02:00,
2013-10-07 07:17:00,46.3,44.0,29.68,WSW,246,5.0,11.0,91,0.00,,,0.00,weatherlink.com 1.10,2013-10-07 11:17:00,
2013-10-07 07:32:00,46.0,43.0,29.69,SSW,200,4.0,9.0,90,0.00,,,0.00,weatherlink.com 1.10,2013-10-07 11:32:00,
2013-10-07 07:47:00,45.8,43.0,29.68,WSW,257,3.0,8.0,91,0.00,,,0.00,weatherlink.com 1.10,2013-10-07 11:47:00,
2013-10-07 08:02:00,46.2,44.0,29.68,WNW,283,4.0,12.0,90,0.00,,,0.00,weatherlink.com 1.10,2013-10-07 12:02:00,
2013-10-07 08:18:00,46.3,44.0,29.69,West,278,5.0,10.0,90,0.00,,,0.00,weatherlink.com 1.10,2013-10-07 12:18:00,
2013-10-07 08:33:00,46.1,43.0,29.69,WSW,248,4.0,12.0,90,0.00,,,0.00,weatherlink.com 1.10,2013-10-07 12:33:00,
2013-10-07 08:48:00,46.6,44.0,29.69,West,272,4.0,11.0,90,0.00,,,0.00,weatherlink.com 1.10,2013-10-07 12:48:00,
2013-10-07 09:03:00,47.0,44.0,29.70,SSE,153,0.0,9.0,89,0.00,,,0.00,weatherlink.com 1.10,2013-10-07 13:03:00,
2013-10-07 09:18:00,48.0,44.0,29.70,SSW,208,5.0,11.0,87,0.00,,,0.00,weatherlink.com 1.10,2013-10-07 13:18:00,
2013-10-07 09:33:00,48.4,44.0,29.70,SW,224,13.0,17.0,85,0.00,,,0.00,weatherlink.com 1.10,2013-10-07 13:33:00,
2013-10-07 09:48:00,48.9,45.0,29.70,WSW,242,0.0,12.0,85,0.00,,,0.00,weatherlink.com 1.10,2013-10-07 13:48:00,
2013-10-07 10:03:00,48.6,44.0,29.71,South,187,3.0,17.0,85,0.00,,,0.00,weatherlink.com 1.10,2013-10-07 14:03:00,
2013-10-07 10:18:00,48.3,44.0,29.72,WSW,238,8.0,13.0,86,0.00,,,0.00,weatherlink.com 1.10,2013-10-07 14:18:00,
2013-10-07 10:33:00,48.3,45.0,29.72,SW,214,9.0,12.0,87,0.00,,,0.00,weatherlink.com 1.10,2013-10-07 14:33:00,
2013-10-07 10:48:00,49.0,45.0,29.72,WSW,256,6.0,14.0,86,0.00,,,0.00,weatherlink.com 1.10,2013-10-07 14:48:00,
2013-10-07 11:03:00,50.4,46.0,29.72,South,183,5.0,16.0,84,0.00,,,0.00,weatherlink.com 1.10,2013-10-07 15:03:00,
2013-10-07 11:18:00,51.0,46.0,29.72,WSW,255,5.0,15.0,84,0.00,,,0.00,weatherlink.com 1.10,2013-10-07 15:18:00,
2013-10-07 11:33:00,51.9,47.0,29.72,WSW,243,7.0,15.0,83,0.00,,,0.00,weatherlink.com 1.10,2013-10-07 15:33:00,
2013-10-07 11:48:00,52.4,47.0,29.73,SW,231,6.0,16.0,83,0.00,,,0.00,weatherlink.com 1.10,2013-10-07 15:48:00,
2013-10-07 12:03:00,52.7,48.0,29.73,West,277,5.0,15.0,84,0.00,,,0.00,weatherlink.com 1.10,2013-10-07 16:03:00,
2013-10-07 12:18:00,54.7,49.0,29.73,WSW,252,10.0,16.0,82,0.00,,,0.00,weatherlink.com 1.10,2013-10-07 16:18:00,
2013-10-07 12:33:00,54.3,49.0,29.74,West,278,4.0,17.0,82,0.00,,,0.00,weatherlink.com 1.10,2013-10-07 16:33:00,
2013-10-07 12:48:00,53.8,48.0,29.74,WSW,245,8.0,15.0,82,0.00,,,0.00,weatherlink.com 1.10,2013-10-07 16:48:00,
2013-10-07 13:03:00,53.9,49.0,29.75,WSW,243,10.0,15.0,83,0.00,,,0.00,weatherlink.com 1.10,2013-10-07 17:03:00,
2013-10-07 13:18:00,53.8,49.0,29.75,WSW,251,6.0,10.0,84,0.00,,,0.00,weatherlink.com 1.10,2013-10-07 17:18:00,
2013-10-07 13:33:00,54.0,49.0,29.75,NW,309,5.0,17.0,83,0.00,,,0.00,weatherlink.com 1.10,2013-10-07 17:33:00,
2013-10-07 13:48:00,53.1,50.0,29.76,WNW,297,3.0,14.0,88,0.00,,,0.00,weatherlink.com 1.10,2013-10-07 17:48:00,
2013-10-07 14:03:00,52.8,50.0,29.76,WNW,287,8.0,17.0,90,0.00,,,0.00,weatherlink.com 1.10,2013-10-07 18:03:00,
2013-10-07 14:18:00,52.8,50.0,29.77,WSW,240,4.0,11.0,91,0.00,,,0.00,weatherlink.com 1.10,2013-10-07 18:18:00,
2013-10-07 14:33:00,52.5,51.0,29.78,WSW,245,7.0,10.0,94,0.02,,,0.02,weatherlink.com 1.10,2013-10-07 18:33:00,
2013-10-07 14:48:00,53.2,52.0,29.79,WSW,257,4.0,12.0,94,0.02,,,0.02,weatherlink.com 1.10,2013-10-07 18:48:00,
2013-10-07 15:03:00,53.2,51.0,29.80,NW,307,6.0,14.0,93,0.03,,,0.03,weatherlink.com 1.10,2013-10-07 19:03:00,
2013-10-07 15:18:00,53.1,51.0,29.81,NW,325,9.0,12.0,93,0.03,,,0.03,weatherlink.com 1.10,2013-10-07 19:18:00,
2013-10-07 15:33:00,53.4,52.0,29.82,NW,326,3.0,9.0,93,0.02,,,0.04,weatherlink.com 1.10,2013-10-07 19:33:00,
2013-10-07 15:48:00,55.3,53.0,29.83,NW,317,5.0,10.0,92,0.02,,,0.04,weatherlink.com 1.10,2013-10-07 19:48:00,
2013-10-07 16:04:00,56.2,51.0,29.84,NNW,336,6.0,11.0,83,0.01,,,0.04,weatherlink.com 1.10,2013-10-07 20:04:00,
2013-10-07 16:19:00,56.7,48.0,29.84,West,274,2.0,12.0,73,0.01,,,0.04,weatherlink.com 1.10,2013-10-07 20:19:00,
2013-10-07 16:34:00,57.8,48.0,29.85,NW,324,8.0,12.0,69,0.00,,,0.04,weatherlink.com 1.10,2013-10-07 20:34:00,
2013-10-07 16:49:00,58.4,48.0,29.86,NW,304,3.0,10.0,68,0.00,,,0.04,weatherlink.com 1.10,2013-10-07 20:49:00,
2013-10-07 17:04:00,57.9,47.0,29.87,WNW,301,1.0,11.0,68,0.00,,,0.04,weatherlink.com 1.10,2013-10-07 21:04:00,
2013-10-07 17:19:00,57.4,47.0,29.87,NW,322,4.0,10.0,68,0.00,,,0.04,weatherlink.com 1.10,2013-10-07 21:19:00,
2013-10-07 17:34:00,58.0,47.0,29.88,NNW,346,2.0,8.0,68,0.00,,,0.04,weatherlink.com 1.10,2013-10-07 21:34:00,
2013-10-07 17:49:00,57.8,47.0,29.89,NW,307,1.0,8.0,67,0.00,,,0.04,weatherlink.com 1.10,2013-10-07 21:49:00,
2013-10-07 18:04:00,58.5,47.0,29.90,NW,304,4.0,9.0,66,0.00,,,0.04,weatherlink.com 1.10,2013-10-07 22:04:00,
2013-10-07 18:19:00,58.8,46.0,29.91,NNW,328,6.0,13.0,62,0.00,,,0.04,weatherlink.com 1.10,2013-10-07 22:19:00,
2013-10-07 18:34:00,58.0,46.0,29.91,WNW,297,0.0,7.0,64,0.00,,,0.04,weatherlink.com 1.10,2013-10-07 22:34:00,
2013-10-07 18:49:00,57.4,46.0,29.92,NW,307,1.0,9.0,65,0.00,,,0.04,weatherlink.com 1.10,2013-10-07 22:49:00,
2013-10-07 19:04:00,56.8,45.0,29.93,WNW,303,0.0,12.0,65,0.00,,,0.04,weatherlink.com 1.10,2013-10-07 23:04:00,
2013-10-07 19:19:00,56.0,44.0,29.94,WNW,284,1.0,8.0,65,0.00,,,0.04,weatherlink.com 1.10,2013-10-07 23:19:00,
2013-10-07 19:34:00,55.0,44.0,29.95,NW,306,2.0,7.0,67,0.00,,,0.04,weatherlink.com 1.10,2013-10-07 23:34:00,
2013-10-07 19:50:00,53.9,44.0,29.96,WSW,252,0.0,3.0,70,0.00,,,0.04,weatherlink.com 1.10,2013-10-07 23:50:00,
2013-10-07 20:04:00,52.8,44.0,29.97,WNW,296,2.0,2.0,73,0.00,,,0.04,weatherlink.com 1.10,2013-10-08 00:04:00,
2013-10-07 20:19:00,52.5,45.0,29.98,West,278,0.0,4.0,75,0.00,,,0.04,weatherlink.com 1.10,2013-10-08 00:19:00,
2013-10-07 20:34:00,52.1,45.0,29.99,WSW,250,1.0,5.0,77,0.00,,,0.04,weatherlink.com 1.10,2013-10-08 00:34:00,
2013-10-07 20:49:00,51.4,45.0,30.00,WSW,255,0.0,2.0,79,0.00,,,0.04,weatherlink.com 1.10,2013-10-08 00:49:00,
2013-10-07 21:04:00,50.8,45.0,30.01,West,259,0.0,1.0,81,0.00,,,0.04,weatherlink.com 1.10,2013-10-08 01:04:00,
2013-10-07 21:19:00,49.8,45.0,30.01,WSW,245,0.0,0.0,82,0.00,,,0.04,weatherlink.com 1.10,2013-10-08 01:19:00,
2013-10-07 21:35:00,48.6,44.0,30.02,WSW,245,0.0,1.0,85,0.00,,,0.04,weatherlink.com 1.10,2013-10-08 01:35:00,
2013-10-07 21:50:00,47.6,44.0,30.03,South,172,0.0,0.0,88,0.00,,,0.04,weatherlink.com 1.10,2013-10-08 01:50:00,
2013-10-07 22:05:00,46.6,44.0,30.04,SW,217,0.0,1.0,89,0.00,,,0.04,weatherlink.com 1.10,2013-10-08 02:05:00,
2013-10-07 22:20:00,46.6,44.0,30.05,SSW,211,0.0,1.0,90,0.00,,,0.04,weatherlink.com 1.10,2013-10-08 02:20:00,
2013-10-07 22:35:00,46.4,44.0,30.05,SE,139,0.0,1.0,90,0.00,,,0.04,weatherlink.com 1.10,2013-10-08 02:35:00,
2013-10-07 22:50:00,46.1,44.0,30.06,SW,233,0.0,1.0,91,0.00,,,0.04,weatherlink.com 1.10,2013-10-08 02:50:00,
2013-10-07 23:05:00,46.0,44.0,30.06,WSW,245,1.0,1.0,92,0.00,,,0.04,weatherlink.com 1.10,2013-10-08 03:05:00,
2013-10-07 23:20:00,46.1,44.0,30.06,SW,226,0.0,0.0,91,0.00,,,0.04,weatherlink.com 1.10,2013-10-08 03:20:00,
2013-10-07 23:35:00,46.1,44.0,30.07,WSW,244,0.0,2.0,92,0.00,,,0.04,weatherlink.com 1.10,2013-10-08 03:35:00,
2013-10-07 23:50:00,46.1,44.0,30.08,SW,228,0.0,1.0,92,0.00,,,0.04,weatherlink.com 1.10,2013-10-08 03:50:00,